Regional Weather Roundup
Issued by NWS

Home | Current Version | Previous Version | Text Only | Print | Product List | Glossary Off
Versions: 1 2 3 4 5 6 7 8 9 10 11 12 13 14 15 16 17 18 19 20 21 22 23 24 25 26 27 28 29 30 31 32 33 34 35 36 37 38 39 40 41 42 43 44 45 46 47 48 49 50

000
ASUS44 KMEG 051410
RWRTN
TENNESSEE HOURLY STATE WEATHER ROUNDUP
NATIONAL WEATHER SERVICE MEMPHIS TN
900 AM CDT TUE MAY 05 2015

TNZ002-004-019-021-049-052-054-088>092-051500-
WEST TENNESSEE

CITY           SKY/WX    TMP DP  RH WIND       PRES   REMARKS
MEMPHIS INTL   PTSUNNY   74  61  63 S7        30.24S
NWS MEMPHIS      N/A     72 N/A N/A MISG        N/A
JACKSON        CLOUDY    70  58  65 S6        30.26S
DYERSBURG      SUNNY     73  50  43 SW6       30.26R
PARIS          MOSUNNY   72  55  56 S6        30.27S
LEXINGTON      SUNNY     70  57  64 S5        30.27R
$$

TNZ008-025-027-028-033-062-065-066-051500-
NORTH MIDDLE TENNESSEE

CITY           SKY/WX    TMP DP  RH WIND       PRES   REMARKS
NASHVILLE      SUNNY     72  56  57 S6        30.31R
CLARKSVILLE    SUNNY     71  58  63 S5        30.28R
SMYRNA         SUNNY     70  57  63 VRB3      30.32R
COOKEVILLE     SUNNY     72  57  60 S3        30.32S
CROSSVILLE     SUNNY     70  51  51 VRB5      30.37R
$$

TNZ061-075-076-078-094-096-097-051500-
SOUTH MIDDLE TENNESSEE

CITY           SKY/WX    TMP DP  RH WIND       PRES   REMARKS
FAYETTEVILLE     N/A     70  54  56 S7        30.32S
TULLAHOMA      SUNNY     72  54  53 SW6       30.33S
WINCHESTER     SUNNY     73  55  53 SE5       30.32S
MCMINNVILLE    SUNNY     72  61  68 SE3       30.33R
COLUMBIA       SUNNY     72  61  68 S3        30.29R
SHELBYVILLE    SUNNY     73  59  60 S8        30.32R
$$

TNZ017-018-042-046-047-051500-
NORTHEAST TENNESSEE

CITY           SKY/WX    TMP DP  RH WIND       PRES   REMARKS
TRI CITIES     MOSUNNY   65  54  67 SE3       30.37F
ELIZABETHTON   SUNNY     66  54  63 CALM      30.37F
$$

TNZ012-013-036-069-073-074-051500-
CENTRAL EAST TENNESSEE

CITY           SKY/WX    TMP DP  RH WIND       PRES   REMARKS
KNOXVILLE      SUNNY     68  54  60 CALM      30.35R
OAK RIDGE      SUNNY     71  54  54 VRB3      30.36S
GATLINBURG     SUNNY     68  52  56 CALM      30.35S
MORRISTOWN     SUNNY     72  55  56 CALM      30.36S
$$

TNZ083-085-099-051500-
SOUTHEAST TENNESSEE

CITY           SKY/WX    TMP DP  RH WIND       PRES   REMARKS
CHATTANOOGA    SUNNY     68  55  63 CALM      30.34S
$$

SKY/WX REPORTED AS FAIR MEANS FEW OR NO CLOUDS BELOW
12 THOUSAND FEET.



USA.gov is the U.S. government's official web portal to all federal, state and local government web resources and services.